Home > Weather > Campbelltown > Past weeks

Flag for Australia Past Weather in Campbelltown, New South Wales, Australia — Yesterday and Last 2 Weeks

Now
39 °F

Chilly.


Feels Like: 35 °F
Forecast: 40 / 65 °F
Wind: 5 mph from South

Location: Camden Airport

Current Time: Jul 30, 2016 at 7:46:32 AM

Latest Report: Jul 30, 2016 at 6:00 AM


Visibility: N/A

Pressure: 30.19 "Hg

Humidity: 88%

Dew Point: 36 °F

Location of CampbelltownLocation

Past Weather in Campbelltown — Graph

°F

Campbelltown Temperature Yesterday

Maximum temperature yesterday: 64 °F (at 2:00 PM)
Minimum temperature yesterday: 33 °F (at 5:00 AM)
Average temperature yesterday: 48 °F

High & Low Weather Summary for the Past Weeks

 TemperatureHumidityPressure
High78 °F (Jul 22, 2:00 PM)100% (Jul 16, 8:00 AM)30.53 "Hg (Jul 16, 8:00 AM)
Low33 °F (Jul 29, 5:00 AM)32% (Jul 15, 3:00 PM)29.44 "Hg (Jul 23, 12:00 AM)
Average53 °F73%30.07 "Hg
* Reported Jul 15 6:00 AM — Jul 30 6:00 AM, Campbelltown, Weather by CustomWeather, © 2016

Note: Actual official high and low records may vary slightly from our data, if they occured in-between our weather recording intervals... More about our weather records

Advertising

Campbelltown Weather History for the Previous 24 Hours

Scroll right to see more
 ConditionsComfort  
Time TempWeatherWind HumidityBarometerVisibility
6:00 AM
Sat, Jul 30
39 °FChilly.5 mph88%30.19 "HgN/A
5:00 AM42 °FQuite cool.1 mph86%30.18 "HgN/A
3:00 AM39 °FChilly.5 mph89%30.17 "HgN/A
2:00 AM40 °FQuite cool.No wind86%30.17 "HgN/A
12:00 AM45 °FCool.No wind77%30.16 "HgN/A
11:00 PM
Fri, Jul 29
47 °FCool.6 mph71%30.16 "HgN/A
9:00 PM49 °FCool.2 mph67%30.15 "HgN/A
8:00 PM49 °FCool.8 mph66%30.14 "HgN/A
6:00 PM54 °FCool.10 mph52%30.11 "HgN/A
5:00 PM57 °FRefreshingly cool.14 mph44%30.09 "HgN/A
3:00 PM62 °FMild.15 mph37%30.08 "HgN/A
2:00 PM64 °FMild.15 mph35%30.07 "HgN/A
12:00 PM61 °FRefreshingly cool.10 mph40%30.14 "HgN/A
11:00 AM57 °FRefreshingly cool.6 mph49%30.17 "HgN/A
9:00 AM46 °FCool.No wind81%30.21 "HgN/A
8:00 AM36 °FChilly.No wind95%30.22 "HgN/A
Weather by CustomWeather, © 2016

See weather overviewHow to use our weather pages